Wind_Speed
18 18 17 17 17 17 18 19 19 20 21 22 23 25 26 27 29 30 31 33 35 36 36 35 35 36 36 37 36 36 35 34 33 32 31 31 30 29 29 29 28 27 27
21 21 20 20 20 20 21 21 22 23 24 24 26 27 28 29 31 32 33 35 36 37 37 37 36 37 38 38 37 37 36 35 34 33 32 32 31 30 30 30 30 29 28
24 23 23 23 23 23 23 24 25 25 26 27 28 29 30 32 33 34 36 37 37 38 38 38 38 38 39 38 38 37 36 35 35 34 33 32 32 32 31 31 31 30 30
27 27 26 26 26 26 26 27 28 28 29 30 31 31 32 34 35 36 38 39 39 39 39 38 39 39 40 39 38 37 36 36 35 34 34 34 34 33 33 32 32 32 31
30 30 29 29 29 29 30 30 31 31 32 33 33 34 35 36 37 38 39 40 41 41 40 39 40 41 41 40 39 37 36 36 35 35 35 35 35 34 34 34 33 33 33
34 33 33 33 33 33 33 33 34 34 35 36 36 36 37 39 40 41 41 42 43 42 41 41 41 42 42 41 40 38 37 36 36 36 37 36 36 36 35 35 34 34 34
37 37 36 36 36 36 36 36 37 37 38 39 40 40 40 41 42 42 42 43 44 44 43 42 43 43 42 41 40 38 37 37 37 37 38 37 37 37 36 36 35 34 34
39 39 39 39 39 39 39 40 40 40 41 42 43 43 43 42 43 43 42 43 43 44 43 43 44 44 43 41 40 39 38 38 38 38 38 37 37 37 36 35 35 34 34
42 42 42 42 42 42 42 43 44 44 44 44 45 46 47 46 45 44 43 43 42 42 43 44 44 43 42 41 40 39 38 38 38 38 38 38 37 36 35 35 35 35 34
45 45 45 45 45 45 45 46 46 47 47 47 47 48 48 48 47 45 44 44 43 43 43 44 44 43 42 41 39 38 38 38 38 38 38 37 36 35 35 35 35 34 34
47 48 48 48 48 48 49 49 49 49 49 49 49 49 48 48 47 47 45 44 44 44 44 44 43 42 41 40 39 38 38 38 38 38 37 36 35 34 34 34 34 33 33
49 50 50 51 51 51 51 51 50 51 51 50 50 49 48 48 47 46 45 44 44 44 44 44 43 42 40 39 38 38 38 38 37 37 36 35 34 33 32 33 33 33 33
51 52 52 52 52 51 51 52 51 51 51 50 50 49 48 47 46 46 45 44 44 44 43 42 42 41 39 38 38 37 37 37 37 36 35 34 33 32 32 32 32 32 31
52 52 53 53 52 52 52 52 52 51 50 50 49 48 47 46 45 45 44 44 44 43 42 41 40 39 38 37 37 37 37 36 36 35 34 33 32 31 31 31 31 31 31
53 52 52 52 52 52 52 51 50 49 48 48 47 46 45 45 45 44 44 44 43 42 41 40 39 38 37 37 36 36 35 35 34 33 33 32 32 31 31 31 31 31 31
52 52 51 51 51 51 50 49 49 48 47 47 46 45 45 45 45 45 44 43 42 41 40 38 37 36 36 36 35 35 35 34 33 33 32 32 31 31 31 31 30 30 30
52 51 50 50 50 49 49 49 48 48 47 46 45 45 45 45 45 44 43 42 41 39 38 36 35 35 35 34 34 34 33 33 33 32 32 31 31 30 30 30 30 30 30
50 50 50 49 49 49 49 48 48 47 46 45 45 45 45 45 44 42 42 41 39 37 36 34 34 34 34 33 33 33 33 32 32 32 31 31 31 30 30 30 30 30 29
49 49 49 49 49 48 48 48 47 46 46 46 45 45 44 44 42 41 40 38 37 35 34 33 33 32 32 32 32 32 32 32 32 32 31 31 31 31 30 30 30 30 30
47 47 47 47 47 47 47 46 45 45 45 45 44 43 42 42 41 39 37 36 34 33 33 32 31 31 31 31 32 32 32 32 32 32 31 31 31 31 31 31 31 31 30
45 45 45 46 45 45 44 44 43 43 43 43 42 41 40 39 38 37 35 34 33 32 32 31 31 30 31 31 32 32 32 32 32 32 31 31 32 32 32 32 32 32 32
42 43 43 43 43 43 43 42 42 42 41 40 40 39 38 37 35 34 33 32 31 30 30 30 30 30 31 31 31 32 32 32 32 32 32 32 32 33 33 33 33 33 34
41 42 42 42 42 42 42 41 40 39 39 39 38 36 35 34 33 32 31 30 30 29 29 30 30 30 31 31 32 32 32 32 32 32 33 33 33 34 34 34 35 35 36
40 40 40 40 40 40 39 38 38 38 37 36 35 34 33 31 30 30 29 29 29 29 29 30 30 31 31 32 32 32 32 33 33 33 34 34 34 34 35 36 36 36 37
37 37 37 37 37 36 36 36 36 36 34 33 32 31 30 29 29 29 29 29 29 29 29 30 31 31 32 32 33 33 33 33 34 34 34 34 35 35 36 37 38 38 39
36 35 35 35 34 34 33 33 33 33 32 31 30 29 29 29 29 29 28 28 29 29 30 31 31 32 32 33 33 33 34 34 34 35 35 35 36 36 37 38 39 40 40
Wind_Direction
260 264 269 274 278 283 288 292 297 300 304 307 309 312 314 316 316 317 318 319 320 320 318 317 316 317 318 318 317 315 314 312 310 309 308 306 304 302 301 299 296 295 293
262 266 270 274 277 282 286 290 294 297 301 304 306 308 310 312 313 314 315 316 317 317 316 314 314 316 316 316 314 313 311 310 308 307 306 304 302 301 299 297 295 293 292
263 267 270 274 278 282 285 289 292 295 298 301 303 305 307 309 310 311 312 313 313 314 313 312 312 314 314 314 312 310 308 307 306 305 304 302 301 299 298 296 294 293 291
265 268 272 275 279 282 285 288 291 294 296 299 301 303 304 305 307 308 309 310 311 312 311 310 311 312 312 312 310 308 306 305 304 303 302 301 300 298 296 294 293 292 290
266 269 273 276 279 282 285 287 290 293 295 297 299 301 302 304 305 306 307 308 309 310 309 308 309 310 311 310 308 306 304 303 302 302 301 300 299 297 295 293 292 290 288
268 270 273 277 280 282 285 287 290 292 294 296 298 300 301 303 304 305 305 306 307 308 307 307 308 309 309 308 306 304 303 301 301 300 300 299 298 297 295 294 291 289 287
269 272 275 277 280 282 284 287 289 291 293 295 297 298 300 301 302 303 304 305 305 306 305 306 306 307 307 306 304 303 301 300 300 300 299 298 297 296 295 293 291 289 286
270 272 275 277 280 282 284 286 288 290 292 294 295 296 297 298 299 301 301 302 303 303 303 305 306 306 305 304 302 301 300 299 299 299 299 298 297 296 294 293 291 288 286
270 272 274 277 279 281 283 285 288 289 291 293 294 296 297 297 297 299 299 299 300 300 301 303 304 304 303 302 300 299 299 299 299 299 298 297 296 295 293 292 290 289 286
270 272 273 276 278 280 283 285 287 288 290 291 293 294 295 296 297 298 299 299 299 299 300 301 302 301 301 300 299 299 299 299 299 299 299 297 296 294 292 292 291 290 288
270 272 273 276 278 280 282 284 285 287 289 290 291 292 293 294 296 296 297 298 298 299 300 300 300 299 299 299 299 299 299 299 299 299 299 297 295 294 293 292 291 290 288
271 272 274 276 278 278 280 282 284 285 287 288 289 290 291 293 294 294 295 296 297 298 298 298 298 298 298 298 298 298 299 299 299 299 298 297 296 294 294 293 292 291 289
271 272 274 276 277 278 279 281 283 284 285 286 287 288 290 291 292 293 294 295 296 297 297 297 297 297 297 298 298 299 299 299 300 300 299 297 295 294 294 294 293 291 289
271 272 273 275 276 277 278 280 282 283 284 285 286 287 288 289 290 292 293 294 295 295 296 295 296 296 297 298 298 299 299 300 300 300 299 297 296 295 294 294 294 292 291
270 272 274 275 275 276 278 279 281 282 282 284 285 286 287 288 289 290 292 293 293 294 294 294 295 296 296 297 298 299 300 300 300 299 299 298 297 296 295 294 294 294 293
270 271 272 273 274 275 277 278 279 280 281 283 284 285 286 287 288 289 291 291 292 292 293 293 294 295 296 296 298 299 300 301 300 300 299 298 297 296 295 294 294 295 295
270 271 272 273 274 275 276 277 278 280 281 282 283 284 285 287 287 288 288 289 290 291 291 291 292 294 295 297 298 299 300 300 300 300 300 299 298 297 296 295 295 295 295
270 271 272 273 274 276 277 278 279 280 281 282 282 283 284 285 285 286 287 288 289 289 289 289 291 293 294 296 297 299 299 300 300 300 299 299 298 297 297 296 295 294 294
270 271 272 273 275 276 277 278 279 279 279 280 280 281 282 283 284 285 285 286 287 287 287 288 290 292 293 295 297 299 299 300 300 299 299 299 298 297 297 296 295 295 294
270 271 273 274 275 276 277 277 277 278 278 278 279 280 280 281 282 283 284 284 284 285 286 288 289 291 293 295 297 299 300 300 300 299 299 298 297 297 297 296 295 295 293
271 272 273 274 275 275 276 276 276 277 277 277 277 278 279 280 281 282 282 282 282 283 286 287 288 290 293 295 297 299 300 300 300 300 299 298 298 297 296 296 295 294 293
272 273 273 274 274 274 275 275 275 276 276 276 277 277 278 279 279 280 280 280 281 282 285 287 288 290 293 295 297 299 299 300 300 300 299 299 298 297 297 296 295 294 293
273 273 273 273 274 274 274 273 273 274 275 276 276 276 277 277 278 278 278 279 280 281 284 287 289 291 294 296 297 298 298 299 299 300 299 299 298 298 297 297 296 295 294
273 274 273 274 274 274 273 272 272 274 275 275 275 275 276 276 276 276 276 277 279 282 285 287 290 292 294 295 297 298 298 299 299 300 300 299 299 299 299 298 297 296 295
274 274 273 273 274 274 273 272 273 273 274 274 274 274 274 274 274 274 275 277 280 283 286 289 291 293 294 296 297 298 298 299 299 300 300 300 300 300 300 299 298 297 296
274 273 273 273 273 273 273 272 272 273 273 272 272 272 272 272 272 273 275 278 281 284 287 289 291 293 295 296 297 297 298 299 299 300 300 300 300 300 301 300 300 299 298
Height
5873 5873 5874 5874 5874 5874 5873 5873 5872 5872 5871 5869 5868 5867 5865 5863 5861 5859 5857 5854 5851 5849 5846 5843 5840 5837 5834 5831 5827 5824 5821 5818 5815 5812 5810 5807 5805 5803 5801 5799 5797 5796 5794
5869 5869 5870 5870 5870 5870 5869 5869 5868 5868 5867 5865 5864 5862 5861 5859 5856 5854 5852 5849 5846 5843 5840 5837 5834 5831 5828 5825 5821 5818 5815 5812 5809 5806 5804 5801 5799 5797 5795 5793 5791 5789 5788
5864 5865 5865 5865 5865 5865 5865 5864 5863 5863 5862 5861 5859 5858 5856 5854 5851 5849 5846 5844 5841 5838 5834 5831 5828 5825 5822 5818 5815 5811 5808 5805 5802 5799 5797 5795 5792 5790 5788 5786 5784 5783 5781
5859 5859 5860 5860 5860 5860 5859 5859 5858 5857 5856 5855 5854 5852 5850 5848 5846 5843 5840 5837 5834 5832 5828 5825 5822 5818 5815 5812 5808 5805 5801 5798 5795 5792 5790 5787 5785 5783 5781 5779 5777 5776 5774
5853 5854 5854 5854 5854 5854 5853 5853 5852 5851 5850 5849 5848 5846 5844 5842 5839 5836 5833 5830 5827 5824 5821 5818 5815 5811 5808 5804 5801 5797 5794 5791 5787 5785 5782 5780 5777 5775 5773 5771 5770 5768 5767
5847 5847 5848 5848 5848 5847 5847 5846 5845 5844 5843 5842 5841 5839 5837 5835 5832 5829 5826 5823 5819 5817 5814 5810 5807 5804 5800 5796 5793 5790 5787 5783 5780 5777 5774 5772 5769 5767 5765 5763 5761 5760 5759
5839 5840 5840 5841 5840 5840 5839 5839 5838 5837 5836 5834 5833 5832 5830 5827 5824 5822 5818 5815 5811 5808 5805 5802 5799 5796 5792 5789 5785 5782 5779 5776 5772 5769 5766 5763 5761 5758 5756 5754 5753 5751 5750
5832 5832 5833 5833 5833 5832 5832 5831 5830 5829 5827 5826 5824 5823 5822 5821 5817 5814 5811 5807 5803 5800 5797 5793 5790 5787 5784 5780 5777 5774 5770 5768 5764 5761 5758 5755 5752 5750 5748 5745 5743 5742 5741
5823 5824 5824 5824 5824 5824 5823 5822 5821 5820 5819 5817 5815 5813 5811 5810 5808 5806 5802 5799 5795 5792 5788 5785 5781 5778 5775 5772 5769 5765 5762 5759 5756 5753 5749 5746 5744 5741 5739 5737 5735 5733 5732
5814 5815 5815 5815 5815 5815 5814 5813 5812 5811 5809 5808 5806 5803 5801 5799 5797 5796 5793 5789 5786 5783 5779 5776 5772 5769 5766 5763 5759 5756 5753 5750 5747 5744 5741 5738 5735 5732 5730 5728 5726 5724 5723
5805 5805 5805 5806 5805 5805 5805 5804 5803 5801 5800 5798 5796 5794 5792 5790 5787 5785 5783 5780 5777 5773 5770 5766 5763 5760 5756 5753 5750 5748 5745 5742 5738 5735 5732 5729 5726 5724 5721 5719 5717 5715 5714
5795 5795 5795 5795 5795 5795 5794 5794 5792 5791 5790 5788 5786 5784 5782 5780 5778 5775 5773 5770 5767 5764 5761 5757 5753 5750 5747 5744 5741 5739 5736 5733 5729 5726 5723 5720 5718 5715 5713 5711 5709 5707 5705
5785 5785 5785 5785 5784 5784 5783 5783 5782 5781 5779 5778 5776 5774 5772 5770 5768 5765 5763 5760 5757 5754 5751 5747 5744 5741 5738 5735 5732 5730 5727 5724 5721 5717 5714 5712 5709 5707 5705 5702 5700 5698 5696
5774 5774 5773 5773 5773 5773 5772 5772 5771 5770 5768 5767 5765 5763 5761 5759 5757 5755 5753 5750 5747 5745 5741 5738 5735 5732 5729 5726 5724 5721 5718 5715 5712 5709 5706 5703 5701 5698 5696 5694 5692 5689 5688
5762 5762 5762 5762 5762 5761 5761 5760 5759 5758 5757 5756 5754 5753 5751 5749 5747 5745 5742 5740 5738 5735 5732 5729 5726 5723 5720 5718 5715 5712 5709 5706 5703 5700 5697 5695 5692 5690 5688 5686 5683 5681 5679
5750 5750 5750 5750 5750 5750 5749 5749 5748 5747 5746 5745 5744 5742 5741 5739 5736 5734 5732 5729 5727 5725 5722 5720 5717 5714 5712 5709 5706 5703 5701 5697 5695 5692 5689 5687 5684 5682 5680 5677 5675 5673 5670
5738 5739 5739 5739 5738 5738 5738 5737 5737 5736 5735 5734 5732 5731 5730 5728 5726 5724 5721 5719 5717 5715 5713 5710 5708 5705 5703 5701 5698 5695 5692 5689 5686 5684 5681 5679 5676 5674 5671 5669 5667 5665 5662
5726 5727 5727 5727 5727 5726 5726 5725 5725 5724 5723 5722 5721 5720 5719 5717 5715 5713 5711 5709 5707 5705 5703 5701 5699 5697 5695 5692 5690 5687 5684 5681 5678 5676 5673 5671 5668 5666 5663 5661 5659 5656 5654
5714 5715 5715 5715 5715 5714 5714 5714 5713 5712 5712 5711 5710 5709 5707 5706 5704 5702 5701 5699 5697 5696 5694 5692 5690 5688 5686 5684 5681 5678 5676 5673 5670 5668 5665 5662 5660 5657 5655 5652 5650 5648 5646
5703 5703 5703 5703 5703 5702 5702 5702 5701 5701 5700 5699 5698 5697 5696 5695 5693 5692 5690 5689 5688 5687 5685 5684 5682 5680 5678 5675 5673 5670 5667 5665 5662 5659 5656 5654 5651 5649 5646 5644 5642 5639 5637
5691 5691 5691 5691 5691 5690 5690 5690 5689 5689 5688 5688 5687 5686 5685 5684 5683 5682 5681 5680 5679 5678 5676 5675 5673 5671 5669 5667 5665 5662 5659 5656 5654 5651 5648 5646 5643 5640 5638 5635 5633 5630 5628
5679 5679 5679 5679 5679 5679 5679 5678 5678 5678 5677 5676 5676 5675 5674 5674 5673 5672 5671 5671 5670 5669 5668 5666 5665 5663 5661 5659 5656 5653 5651 5648 5645 5643 5640 5637 5634 5631 5628 5626 5623 5621 5618
5668 5668 5668 5668 5668 5667 5667 5667 5667 5667 5666 5666 5665 5665 5664 5664 5663 5663 5662 5662 5661 5660 5659 5658 5656 5654 5652 5650 5648 5645 5642 5639 5637 5634 5631 5628 5625 5622 5619 5616 5613 5610 5608
5658 5657 5657 5657 5657 5656 5656 5656 5656 5656 5656 5655 5655 5655 5655 5654 5654 5654 5654 5653 5652 5651 5650 5649 5647 5645 5643 5641 5638 5636 5633 5630 5627 5625 5622 5619 5615 5612 5609 5606 5603 5600 5597
5647 5647 5647 5646 5646 5646 5646 5646 5646 5646 5646 5646 5646 5646 5645 5645 5645 5645 5645 5645 5644 5643 5641 5640 5638 5636 5634 5632 5629 5627 5624 5621 5618 5615 5612 5609 5606 5602 5599 5595 5592 5588 5585
5637 5637 5637 5636 5636 5636 5636 5636 5636 5636 5636 5636 5636 5637 5637 5637 5637 5637 5636 5636 5635 5634 5633 5631 5629 5627 5625 5622 5620 5617 5614 5612 5608 5605 5602 5599 5595 5592 5588 5584 5580 5577 5573